metlocid,date_time,avg_airt3m,std_airt3m,min_airt3m,max_airt3m,n_airt3m,n_comments
FRSM,12/21/10,-7.799629671,0.372497758,-8.51,-6.76,54,1
FRSM,12/22/10,-7.414895852,0.699116732,-8.88,-6.01,96,0
FRSM,12/23/10,-5.590520829,1.048890492,-7.93,-4.06,96,0
FRSM,12/24/10,-7.854166672,0.662727504,-9.12,-6.14,96,0
FRSM,12/25/10,-8.260937512,0.879593311,-9.67,-6.37,96,0
FRSM,12/26/10,-9.274062445,0.447410251,-9.98,-8.52,96,0
FRSM,12/27/10,-9.146250029,0.421821234,-9.83,-8.28,96,0
FRSM,12/28/10,-9.662604153,0.351999576,-10.55,-8.88,96,0
FRSM,12/29/10,-9.302500059,0.638227854,-10.72,-8.28,96,0
FRSM,12/30/10,-8.407083288,0.674500872,-9.69,-6.83,96,0
FRSM,12/31/10,-9.345312456,0.824096235,-10.89,-7.19,96,0
FRSM,1/1/11,-10.79802086,0.620033268,-12.05,-9.56,96,0
FRSM,1/2/11,-11.56229164,0.677455678,-13.04,-10.2,96,0
FRSM,1/3/11,-12.77718745,0.988907601,-14.23,-9.97,96,0
FRSM,1/4/11,-13.00656248,0.546641109,-14.01,-10.75,96,0
FRSM,1/5/11,-12.29427082,0.533752832,-13.36,-10.85,96,0
FRSM,1/6/11,-12.33260416,0.693579942,-13.58,-9.91,96,0
FRSM,1/7/11,-13.05218752,0.532995865,-14.36,-12.1,96,0
FRSM,1/8/11,-12.1908333,0.547839125,-13.37,-10.47,96,0
FRSM,1/9/11,-11.83010417,1.016100415,-13.55,-9.09,96,0
FRSM,1/10/11,-12.2645833,0.96012165,-13.92,-10.69,96,0
FRSM,1/11/11,-12.61031249,0.649567327,-13.79,-10.77,96,0
FRSM,1/12/11,-13.13218753,0.470194144,-13.95,-11.94,96,0
FRSM,1/13/11,-12.18083334,0.91755938,-13.85,-10.7,96,0
FRSM,1/14/11,-11.5327083,0.683217597,-12.43,-10.3,96,0
FRSM,1/15/11,-11.23968752,0.676466777,-12.35,-10.17,96,0
FRSM,1/16/11,-9.994791687,0.49221509,-10.73,-8.59,96,0
FRSM,1/17/11,-8.196354195,1.35029436,-10.73,-6.23,96,0
FRSM,1/18/11,-6.919791684,0.544136163,-7.96,-5.85,96,0
FRSM,1/19/11,-8.970937485,0.724924766,-10.38,-7.06,96,0
FRSM,1/20/11,-10.60697916,0.37043678,-11.18,-9.76,96,0
FRSM,1/21/11,-11.26593755,1.06086814,-13.05,-8.23,96,0
FRSM,1/22/11,-10.75375,0.813890287,-12.6,-9.09,96,0
FRSM,1/23/11,-14.19989581,0.463650274,-14.98,-12.57,96,0
FRSM,1/24/11,-13.0648958,1.671771217,-15.6,-10.08,96,0
FRSM,1/25/11,-11.98677079,0.80496544,-13.78,-10.27,96,0
FRSM,1/26/11,-13.42906253,1.040412937,-14.89,-10.84,96,0
FRSM,1/27/11,-15.83833348,0.795729004,-17.4,-13.68,96,0
FRSM,1/28/11,-14.63906253,0.712785615,-16.59,-12.66,96,0
FRSM,1/29/11,-13.56572916,0.956149861,-15.53,-11.85,96,0
FRSM,1/30/11,-15.63947919,1.316558847,-16.84,-10.67,96,0
FRSM,1/31/11,-15.8616667,0.62194203,-17.13,-13.69,96,0
FRSM,2/1/11,-14.00635419,1.71177845,-16.65,-11.46,96,0
FRSM,2/2/11,-12.88979163,1.047858962,-15.67,-11.53,96,0
FRSM,2/3/11,-16.27875001,0.493202685,-17.14,-15.11,96,0
FRSM,2/4/11,-17.26604165,1.509738542,-20.33,-14.36,96,0
FRSM,2/5/11,-15.30697911,1.315465152,-18.23,-13.17,96,0
FRSM,2/6/11,-14.48833333,0.51644672,-15.52,-13.51,96,0
FRSM,2/7/11,-15.12468748,1.850573121,-19.04,-11.66,96,0
FRSM,2/8/11,-18.30437501,1.241740438,-20.48,-16.44,96,0
FRSM,2/9/11,-16.52531255,0.872810299,-18.49,-14.96,96,0
FRSM,2/10/11,-16.37760417,1.080746061,-18.28,-13.89,96,0
FRSM,2/11/11,-19.61135417,0.574283268,-20.72,-17.68,96,0
FRSM,2/12/11,-18.801875,0.97123613,-20.51,-17.29,96,0
FRSM,2/13/11,-19.27479164,0.561730349,-20.34,-17.25,96,0
FRSM,2/14/11,-19.28677096,1.412866802,-21.94,-16.86,96,0
FRSM,2/15/11,-18.5505209,1.116435469,-20.41,-16.28,96,0
FRSM,2/16/11,-17.93499994,1.544696837,-20.64,-15.8,96,0
FRSM,2/17/11,-15.53812505,1.061911182,-17.08,-13.42,96,0
FRSM,2/18/11,-15.31687494,0.779426655,-16.56,-13.84,96,0
FRSM,2/19/11,-15.06229166,0.628782443,-15.89,-13.24,96,0
FRSM,2/20/11,-13.34489584,1.769545334,-15.74,-10.44,96,0
FRSM,2/21/11,-16.26802083,1.1108552,-19.16,-13.99,96,0
FRSM,2/22/11,-18.2382292,0.565789516,-19.22,-16.85,96,0
FRSM,2/23/11,-17.37749996,1.0370047,-19.41,-15.72,96,0
FRSM,2/24/11,-15.12947915,1.62137457,-17.17,-11.98,96,0
FRSM,2/25/11,-13.07708331,1.486713722,-15.33,-9.7,96,0
FRSM,2/26/11,-14.31239583,1.362786447,-16.68,-11.54,96,0
FRSM,2/27/11,-14.92218748,1.367916774,-17.11,-12.18,96,0
FRSM,2/28/11,-17.08427085,1.744114725,-20.59,-12.62,96,0
FRSM,3/1/11,-21.43927079,0.55124779,-22.53,-20.39,96,0
FRSM,3/2/11,-20.21749997,1.411685881,-22.57,-17.29,96,0
FRSM,3/3/11,-23.25437488,1.371780137,-25.54,-20.07,96,0
FRSM,3/4/11,-26.22489582,1.016656055,-28.31,-24.32,96,0
FRSM,3/5/11,-23.70666673,1.602554363,-26.41,-21.24,96,0
FRSM,3/6/11,-20.98000006,1.652276307,-23.97,-18.18,96,0
FRSM,3/7/11,-19.32177077,0.784216582,-20.48,-16.78,96,0
FRSM,3/8/11,-18.57645827,1.14682996,-21.13,-15.71,96,0
FRSM,3/9/11,-21.1141666,1.077359025,-23.96,-19.02,96,0
FRSM,3/10/11,-25.42750009,1.547517566,-29.04,-22.57,96,0
FRSM,3/11/11,-27.62791665,1.176983618,-29.89,-25.67,96,0
FRSM,3/12/11,-23.05531236,1.273785814,-25.54,-19.25,96,0
FRSM,3/13/11,-26.4870833,0.857883436,-27.61,-24.35,96,0
FRSM,3/14/11,-26.47333338,1.088299201,-27.83,-23.77,96,0
FRSM,3/15/11,-27.47427082,0.89882004,-28.88,-24.4,96,0
FRSM,3/16/11,-26.3086459,1.894936637,-29.16,-22.34,96,0
FRSM,3/17/11,-23.47906258,1.99519956,-26.37,-20.04,96,0
FRSM,3/18/11,-23.08968753,1.383362463,-26.29,-20.08,96,0
FRSM,3/19/11,-26.50062507,1.166946483,-28.9,-24.05,96,0
FRSM,3/20/11,-25.58177082,1.171925033,-27.73,-22.94,96,0
FRSM,3/21/11,-22.66614588,1.283700569,-25.89,-20.51,96,0
FRSM,3/22/11,-18.49177077,1.036887017,-20.67,-15.17,96,0
FRSM,3/23/11,-19.5215626,0.74376041,-21.22,-18.16,96,0
FRSM,3/24/11,-19.22593745,0.888991711,-20.67,-18.12,96,0
FRSM,3/25/11,-19.43406242,1.156832067,-21.68,-16.93,96,0
FRSM,3/26/11,-17.18520824,1.890287607,-21.98,-14.55,96,0
FRSM,3/27/11,-23.52864585,4.435934593,-30.8,-16.02,96,0
FRSM,3/28/11,-29.34531256,0.791718828,-30.87,-27.78,96,0
FRSM,3/29/11,-25.8696874,1.741355412,-30.21,-22.89,96,0
FRSM,3/30/11,-25.08208338,1.012801096,-27.89,-23.69,96,0
FRSM,3/31/11,-27.56718743,0.597540059,-28.74,-26.11,96,0
FRSM,4/1/11,-26.81187503,1.039137627,-28.32,-24.32,96,0
FRSM,4/2/11,-29.01875001,0.861643853,-30.66,-26.82,96,0
FRSM,4/3/11,-28.62541662,1.663154113,-31.49,-26.43,96,0
FRSM,4/4/11,-27.92354174,1.618833118,-31.42,-25.95,96,0
FRSM,4/5/11,-30.47177076,1.693341674,-33.04,-26.23,96,0
FRSM,4/6/11,-34.65645842,1.350161796,-36.88,-32.32,96,0
FRSM,4/7/11,-32.21833334,2.937883049,-37.22,-27.92,96,0
FRSM,4/8/11,-28.73927079,0.758033873,-29.89,-25.86,96,0
FRSM,4/9/11,-32.09083337,1.680489786,-34.3,-28.97,96,0
FRSM,4/10/11,-27.94302084,3.053488455,-33.55,-23.49,96,0
FRSM,4/11/11,-22.28124998,0.848817461,-24.39,-21,96,0
FRSM,4/12/11,-23.99302083,0.740389841,-25.81,-22.35,96,0
FRSM,4/13/11,-24.34395836,1.560834738,-26.73,-21.85,96,0
FRSM,4/14/11,-19.25062508,2.281583366,-22.65,-15.05,96,0
FRSM,4/15/11,-14.79947919,0.391736697,-15.71,-14.07,96,0
FRSM,4/16/11,-12.19020833,1.331150653,-14.44,-10.24,96,0
FRSM,4/17/11,-18.20031246,1.578039661,-20.59,-14.27,96,0
FRSM,4/18/11,-21.9016666,0.85316334,-23.15,-19.66,96,0
FRSM,4/19/11,-20.23385423,1.379898048,-22.45,-16.83,96,0
FRSM,4/20/11,-19.3901041,0.957642336,-21.72,-17.1,96,0
FRSM,4/21/11,-19.48260417,1.708121299,-23.37,-15.82,96,0
FRSM,4/22/11,-31.76895829,4.276099117,-36.3,-22.6,96,0
FRSM,4/23/11,-33.73979159,1.155508649,-36.06,-31.36,96,0
FRSM,4/24/11,-29.41687502,1.41247771,-32.32,-26.26,96,0
FRSM,4/25/11,-30.95125004,2.330197686,-35.27,-26.62,96,0
FRSM,4/26/11,-26.12052089,2.072101722,-30.04,-21.83,96,0
FRSM,4/27/11,-23.56593756,1.329902703,-26.16,-20.44,96,0
FRSM,4/28/11,-25.8083334,0.912516115,-27.45,-23.89,96,0
FRSM,4/29/11,-22.45572921,0.609145631,-23.9,-21.4,96,0
FRSM,4/30/11,-22.15177085,1.047304411,-24.67,-20.56,96,0
FRSM,5/1/11,-24.61614587,0.573541963,-25.99,-23.42,96,0
FRSM,5/2/11,-25.48489583,0.993187321,-28.06,-23.82,96,0
FRSM,5/3/11,-28.06333337,1.346834603,-30.81,-26.15,96,0
FRSM,5/4/11,-31.33604173,2.35665396,-36.06,-28.16,96,0
FRSM,5/5/11,-34.67656239,0.708626248,-35.92,-33.66,96,0
FRSM,5/6/11,-34.41583327,1.2734237,-36.13,-31.05,96,0
FRSM,5/7/11,-31.62364582,0.899590679,-33.64,-29.95,96,0
FRSM,5/8/11,-32.66916662,1.182730734,-35.61,-31,96,0
FRSM,5/9/11,-28.92447913,1.443405213,-33.03,-26.14,96,0
FRSM,5/10/11,-25.54124999,1.898265798,-29.27,-21.14,96,0
FRSM,5/11/11,-23.1038542,2.424143671,-29.3,-19.09,96,0
FRSM,5/12/11,-20.1103125,1.488033358,-24.03,-17.92,96,0
FRSM,5/13/11,-23.26156245,0.609694215,-24.74,-22.05,96,0
FRSM,5/14/11,-24.70625005,0.91699769,-26.28,-23.12,96,0
FRSM,5/15/11,-27.81062504,0.959901172,-29.45,-26.14,96,0
FRSM,5/16/11,-26.91447922,1.793073766,-29.83,-23.41,96,0
FRSM,5/17/11,-24.24437509,0.282048201,-24.82,-23.56,96,0
FRSM,5/18/11,-24.83999999,0.502894679,-25.81,-23.61,96,0
FRSM,5/19/11,-21.96552086,1.049485933,-23.67,-20.08,96,0
FRSM,5/20/11,-21.1955208,0.496874158,-22.47,-20.24,96,0
FRSM,5/21/11,-21.9756249,0.444796504,-22.76,-20.3,96,0
FRSM,5/22/11,-21.8435416,2.492962314,-26.95,-19.06,96,0
FRSM,5/23/11,-30.49624989,1.585603126,-32.43,-26.59,96,0
FRSM,5/24/11,-28.99093751,0.454157614,-29.98,-27.88,96,0
FRSM,5/25/11,-29.56833325,2.181964635,-33.85,-27.01,96,0
FRSM,5/26/11,-30.75010421,1.785542215,-33.95,-28.07,96,0
FRSM,5/27/11,-28.83416655,2.126904598,-32.57,-26.08,96,0
FRSM,5/28/11,-31.03135415,0.6930354,-32.62,-29.99,96,0
FRSM,5/29/11,-27.15458335,1.637811019,-30.25,-23.54,96,0
FRSM,5/30/11,-25.46999991,1.427956956,-28.03,-23.4,96,0
FRSM,5/31/11,-25.42135413,0.718405595,-27.35,-24.15,96,0
FRSM,6/1/11,-26.09458329,1.096159807,-28.4,-23.99,96,0
FRSM,6/2/11,-26.94479177,0.432096491,-27.84,-26.07,96,0
FRSM,6/3/11,-27.26083334,0.54823295,-28.01,-25.77,96,0
FRSM,6/4/11,-29.46520829,1.042650413,-31.17,-27.19,96,0
FRSM,6/5/11,-27.8407292,0.570828125,-29.75,-26.83,96,0
FRSM,6/6/11,-24.81364586,1.228296195,-26.48,-21.61,96,0
FRSM,6/7/11,-25.61010416,1.863111474,-27.88,-22.14,96,0
FRSM,6/8/11,-26.62499996,1.41918946,-28.47,-22.94,96,0
FRSM,6/9/11,-21.59624996,0.457635178,-22.97,-20.54,96,0
FRSM,6/10/11,-22.29614582,1.235160649,-24.33,-20.66,96,0
FRSM,6/11/11,-25.01354166,0.952248312,-27.12,-23.3,96,0
FRSM,6/12/11,-26.19208324,0.433728017,-27.42,-25.09,96,0
FRSM,6/13/11,-24.00374999,0.823071555,-25.66,-22.01,96,0
FRSM,6/14/11,-23.40385417,0.369108106,-24.15,-22.59,96,0
FRSM,6/15/11,-21.80614579,1.328058696,-23.75,-19.67,96,0
FRSM,6/16/11,-19.59708341,0.644596881,-20.99,-18.44,96,0
FRSM,6/17/11,-17.42895836,0.38241201,-18.9,-16.6,96,0
FRSM,6/18/11,-19.73312511,0.925985551,-21.99,-17.42,96,0
FRSM,6/19/11,-26.1059375,2.580214032,-29.93,-21.35,96,0
FRSM,6/20/11,-28.71729169,0.478157601,-29.75,-27.29,96,0
FRSM,6/21/11,-29.5195833,1.438142113,-32.29,-27.05,96,0
FRSM,6/22/11,-32.22979174,1.425790319,-36.83,-30.16,96,0
FRSM,6/23/11,-35.56343742,1.985771839,-38.53,-31.86,96,0
FRSM,6/24/11,-32.38343759,1.766746617,-36.11,-28.97,96,0
FRSM,6/25/11,-31.57520843,0.538754854,-33.23,-30.69,96,0
FRSM,6/26/11,-32.79885423,0.613570624,-34.26,-31.44,96,0
FRSM,6/27/11,-30.01999996,0.821492851,-31.75,-28.73,96,0
FRSM,6/28/11,-27.68614584,0.655715501,-29.01,-26.43,96,0
FRSM,6/29/11,-26.14760413,0.761945907,-28.3,-24.78,96,0
FRSM,6/30/11,-26.95135421,0.502529674,-27.94,-25.18,96,0
FRSM,7/1/11,-27.29718747,0.987801092,-29.52,-25.96,96,0
FRSM,7/2/11,-29.77770837,0.631325248,-31.21,-28.57,96,0
FRSM,7/3/11,-31.03437489,2.032865514,-34.48,-27.76,96,0
FRSM,7/4/11,-25.15989584,1.219477369,-27.74,-23.2,96,0
FRSM,7/5/11,-27.22156252,1.072704687,-29.19,-25,96,0
FRSM,7/6/11,-28.95406248,2.382712004,-33.65,-25.69,96,0
FRSM,7/7/11,-31.82687509,0.935211075,-34.41,-30.06,96,0
FRSM,7/8/11,-26.03333338,1.918104135,-30.23,-23.48,96,0
FRSM,7/9/11,-25.48489573,0.659846801,-26.86,-24.5,96,0
FRSM,7/10/11,-26.44052088,0.406679464,-27.12,-25.57,96,0
FRSM,7/11/11,-24.54427081,0.573171707,-25.99,-23.6,96,0
FRSM,7/12/11,-24.01281238,1.801579864,-27.88,-21.55,96,0
FRSM,7/13/11,-29.11968764,0.723080338,-30.56,-27.56,96,0
FRSM,7/14/11,-24.8332292,2.255533747,-28.46,-21.11,96,0
FRSM,7/15/11,-19.04562498,2.482211515,-22.46,-14.87,96,0
FRSM,7/16/11,-20.41635416,1.824343599,-22.63,-16.2,96,0
FRSM,7/17/11,-23.89572914,1.291974972,-25.68,-21.81,96,0
FRSM,7/18/11,-18.34802079,1.255366292,-21.79,-16.82,96,0
FRSM,7/19/11,-20.19802084,0.873797124,-21.07,-17.98,96,0
FRSM,7/20/11,-20.16593746,0.759108412,-21.24,-18.38,96,0
FRSM,7/21/11,-24.12906253,2.848790905,-28.8,-19.3,96,0
FRSM,7/22/11,-25.1027083,3.562136208,-31.18,-19.77,96,0
FRSM,7/23/11,-23.92656241,2.249370261,-27.41,-18.85,96,0
FRSM,7/24/11,-29.25604161,0.547269792,-30.23,-27.51,96,0
FRSM,7/25/11,-29.65416656,0.784959427,-31.22,-28.35,96,0
FRSM,7/26/11,-27.205,1.660093795,-30.77,-24.4,96,0
FRSM,7/27/11,-22.60437493,0.993745509,-24.63,-20.66,96,0
FRSM,7/28/11,-24.31541673,1.935376353,-27.7,-21.24,96,0
FRSM,7/29/11,-26.55479161,0.463941857,-27.38,-25.3,96,0
FRSM,7/30/11,-25.84749997,0.839020739,-27.53,-24.19,96,0
FRSM,7/31/11,-25.87427082,2.248274585,-28.95,-21.95,96,0
FRSM,8/1/11,-19.80416662,1.274600204,-22.67,-18.24,96,0
FRSM,8/2/11,-18.09260422,0.784709399,-19.08,-15.92,96,0
FRSM,8/3/11,-14.76041664,0.735010072,-16.73,-13.37,96,0
FRSM,8/4/11,-16.11468754,0.904520738,-18.57,-14.53,96,0
FRSM,8/5/11,-20.29145844,2.18270426,-24.01,-15.91,96,0
FRSM,8/6/11,-21.9434375,1.803068531,-25.58,-17.87,96,0
FRSM,8/7/11,-23.9117708,1.091248356,-26.07,-21.6,96,0
FRSM,8/8/11,-30.31791673,2.911347629,-35.25,-24.14,96,0
FRSM,8/9/11,-33.62354167,2.577233404,-37.26,-29.57,96,0
FRSM,8/10/11,-28.78187497,1.249332629,-30.35,-25.68,96,0
FRSM,8/11/11,-22.95656248,1.219318042,-25.65,-21.08,96,0
FRSM,8/12/11,-21.7286458,0.741696034,-23.56,-20.31,96,0
FRSM,8/13/11,-25.28479175,0.877691798,-26.65,-23.12,96,0
FRSM,8/14/11,-25.76822919,1.003332373,-26.98,-23.29,96,0
FRSM,8/15/11,-24.71062497,1.187797452,-26.92,-22.58,96,0
FRSM,8/16/11,-27.58885417,1.627726198,-30.11,-23.05,96,0
FRSM,8/17/11,-26.53947908,2.399646247,-32,-22.47,96,0
FRSM,8/18/11,-25.17031238,1.642125462,-29.51,-22.41,96,0
FRSM,8/19/11,-36.9313543,2.22709381,-39.45,-29.97,96,0
FRSM,8/20/11,-38.54333337,0.859155923,-39.61,-36.3,96,0
FRSM,8/21/11,-34.69218733,1.900292112,-37.46,-31.57,96,0
FRSM,8/22/11,-32.75375011,1.849277197,-35.21,-28.96,96,0
FRSM,8/23/11,-22.98010419,3.020754374,-28.6,-19.4,96,0
FRSM,8/24/11,-24.22499994,1.878969445,-26.24,-20.72,96,0
FRSM,8/25/11,-24.32854166,0.606548488,-25.45,-22.75,96,0
FRSM,8/26/11,-24.69239581,0.765387661,-26.03,-23.52,96,0
FRSM,8/27/11,-21.94270841,1.50083728,-24.47,-19.46,96,0
FRSM,8/28/11,-19.92291665,0.520349907,-20.82,-18.96,96,0
FRSM,8/29/11,-20.01635426,0.388950328,-20.79,-19.27,96,0
FRSM,8/30/11,-20.00739586,0.794138063,-21.71,-18.21,96,0
FRSM,8/31/11,-21.88187498,0.824083912,-23.59,-19.92,96,0
FRSM,9/1/11,-19.78135415,0.912053361,-21.76,-18.05,96,0
FRSM,9/2/11,-20.85906247,0.591762918,-22,-19.95,96,0
FRSM,9/3/11,-22.85979166,2.760910592,-26.38,-18.45,96,0
FRSM,9/4/11,-23.64677085,1.109173701,-25.94,-21.35,96,0
FRSM,9/5/11,-26.62854173,1.770297604,-29.68,-23.67,96,0
FRSM,9/6/11,-24.60916656,2.372653318,-28.66,-21.14,96,0
FRSM,9/7/11,-26.44229156,3.536447368,-32.1,-21.21,96,0
FRSM,9/8/11,-30.65291669,1.221456415,-32.38,-28.46,96,0
FRSM,9/9/11,-27.34770842,1.882817866,-29.78,-23.82,96,0
FRSM,9/10/11,-22.07427071,0.965371737,-23.81,-20.47,96,0
FRSM,9/11/11,-20.90260412,0.288685677,-21.69,-20.33,96,0
FRSM,9/12/11,-19.85333331,0.439877303,-20.8,-18.81,96,0
FRSM,9/13/11,-20.63666668,1.275186382,-23.56,-18.62,96,0
FRSM,9/14/11,-23.24958338,1.141584209,-25.43,-20.98,96,0
FRSM,9/15/11,-21.21500013,1.409795035,-24.04,-18.44,96,0
FRSM,9/16/11,-22.98447913,1.206729296,-25.78,-20.9,96,0
FRSM,9/17/11,-24.7980208,1.100869982,-27.23,-22.58,96,0
FRSM,9/18/11,-22.29104177,2.095117851,-25.82,-17.8,96,0
FRSM,9/19/11,-26.7515625,1.425447216,-29.43,-23.82,96,0
FRSM,9/20/11,-28.95000003,1.095787067,-31.52,-27.02,96,0
FRSM,9/21/11,-30.74989579,1.257791229,-33.27,-28.47,96,0
FRSM,9/22/11,-31.01843754,1.771758228,-33.82,-26.18,96,0
FRSM,9/23/11,-25.22739585,1.162868741,-28.06,-22.84,96,0
FRSM,9/24/11,-34.34510408,3.015237516,-38.65,-25.67,96,0
FRSM,9/25/11,-36.7417707,1.46343582,-38.77,-33.62,96,0
FRSM,9/26/11,-29.67135421,2.943857881,-34.46,-25.2,96,0
FRSM,9/27/11,-20.40708331,2.347344806,-25.21,-17.64,96,0
FRSM,9/28/11,-25.21677081,2.269742207,-29.64,-19.06,96,0
FRSM,9/29/11,-28.55249999,2.748460281,-33.58,-23.89,96,0
FRSM,9/30/11,-33.80802069,1.395630406,-36.17,-30.33,96,0
FRSM,10/1/11,-33.48208332,2.703376361,-36.69,-29.19,96,0
FRSM,10/2/11,-23.96093752,2.96315014,-29.83,-20.4,96,0
FRSM,10/3/11,-22.31395827,3.444852272,-29.14,-18.17,96,0
FRSM,10/4/11,-23.80510418,4.270328403,-30.02,-18.3,96,0
FRSM,10/5/11,-18.07750007,1.359781691,-21.07,-15.14,96,0
FRSM,10/6/11,-20.88770833,1.290758661,-22.98,-18.55,96,0
FRSM,10/7/11,-17.14145833,0.772441111,-18.49,-15.31,96,0
FRSM,10/8/11,-18.59104168,1.522592264,-22.17,-16.66,96,0
FRSM,10/9/11,-20.72010412,0.993609614,-23.26,-18.84,96,0
FRSM,10/10/11,-17.11614588,2.267081335,-20.86,-13.22,96,0
FRSM,10/11/11,-24.01239594,2.22469812,-28.81,-20.72,96,0
FRSM,10/12/11,-28.40520839,1.498489081,-30.29,-23.95,96,0
FRSM,10/13/11,-27.79499998,1.930753256,-31.44,-23.75,96,0
FRSM,10/14/11,-24.95249999,1.729801285,-28.66,-21.34,96,0
FRSM,10/15/11,-31.25437498,2.489798977,-35.21,-27.25,96,0
FRSM,10/16/11,-26.6282292,3.35970677,-32.13,-20.55,96,0
FRSM,10/17/11,-24.0581251,1.354209351,-26.7,-21.4,96,0
FRSM,10/18/11,-25.12208341,1.127204137,-27.81,-22.95,96,0
FRSM,10/19/11,-26.48416672,1.412951886,-29.39,-23.55,96,0
FRSM,10/20/11,-28.93427072,1.148646519,-31.29,-26.48,96,0
FRSM,10/21/11,-26.41958318,0.550595697,-27.8,-25.43,96,0
FRSM,10/22/11,-27.12354161,1.373140809,-29.15,-25.28,96,0
FRSM,10/23/11,-25.09260418,0.669818897,-26.15,-24.09,96,0
FRSM,10/24/11,-23.65312501,1.161684214,-25.88,-22.22,96,0
FRSM,10/25/11,-22.62291666,0.616772354,-24.34,-21.56,96,0
FRSM,10/26/11,-21.77218745,1.342387734,-24.39,-20,96,0
FRSM,10/27/11,-18.76583336,1.078166765,-20.2,-16.61,96,0
FRSM,10/28/11,-19.4717708,1.855119259,-22.95,-16.05,96,0
FRSM,10/29/11,-22.64833333,0.82877293,-25.07,-21.33,96,0
FRSM,10/30/11,-24.7957291,0.731348814,-26.49,-23.33,96,0
FRSM,10/31/11,-24.38541667,0.85272438,-26.25,-22.85,96,0
FRSM,11/1/11,-21.62874997,2.245212049,-25.41,-18.33,96,0
FRSM,11/2/11,-15.64499997,1.439145207,-18.42,-13.03,96,0
FRSM,11/3/11,-16.4801042,0.945929257,-18.04,-14.31,96,0
FRSM,11/4/11,-18.28229163,0.65740555,-20.12,-16.98,96,0
FRSM,11/5/11,-17.17291674,1.191542989,-19.59,-15.57,96,0
FRSM,11/6/11,-16.339375,0.288417819,-17.05,-15.71,96,0
FRSM,11/7/11,-15.24281249,0.702999168,-16.34,-14.23,96,0
FRSM,11/8/11,-14.13697915,1.187455606,-15.64,-12.02,96,0
FRSM,11/9/11,-14.00729163,0.723959107,-15.03,-12.28,96,0
FRSM,11/10/11,-14.44458336,0.741648104,-16.23,-12.72,96,0
FRSM,11/11/11,-16.55989576,0.999909908,-18.85,-15.16,96,0
FRSM,11/12/11,-18.4483333,0.701384742,-19.61,-16.38,96,0
FRSM,11/13/11,-15.18614587,1.091614344,-17.53,-13.2,96,0
FRSM,11/14/11,-12.25145834,1.767611531,-15.22,-9.18,96,0
FRSM,11/15/11,-10.07375,1.370805524,-12.75,-7.89,96,0
FRSM,11/16/11,-8.670416683,0.945219462,-10.81,-7.04,96,0
FRSM,11/17/11,-12.58197919,1.485296121,-14.83,-8.78,96,0
FRSM,11/18/11,-16.80687504,1.248026903,-18.69,-13.6,96,0
FRSM,11/19/11,-19.88864593,0.892234962,-22.31,-18.08,96,0
FRSM,11/20/11,-18.37833327,1.26781344,-20.31,-16.58,96,0
FRSM,11/21/11,-14.7657292,1.421934769,-17.75,-13.12,96,0
FRSM,11/22/11,-14.16708334,0.28795073,-14.65,-13.44,96,0
FRSM,11/23/11,-13.62916668,0.713245625,-14.89,-11.57,96,0
FRSM,11/24/11,-14.45249997,0.653125265,-15.76,-13.32,96,0
FRSM,11/25/11,-16.23833335,0.564244613,-17.03,-14.46,96,0
FRSM,11/26/11,-13.06541667,1.700102753,-15.92,-9.71,96,0
FRSM,11/27/11,-14.49385414,0.719844117,-15.89,-12.84,96,0
FRSM,11/28/11,-13.03145837,0.565415515,-14.18,-11.87,96,0
FRSM,11/29/11,-10.83947916,0.88718524,-13.08,-9,96,0
FRSM,11/30/11,-11.16218752,0.977250927,-12.97,-8.97,96,0
FRSM,12/1/11,-11.65489584,0.958598756,-13.24,-9.66,96,0
FRSM,12/2/11,-11.39177084,0.725339878,-13.37,-10.23,96,0
FRSM,12/3/11,-11.69958336,1.454871243,-14.92,-9.41,96,0
FRSM,12/4/11,-13.66572918,1.14595831,-15.45,-12.26,96,0
FRSM,12/5/11,-14.03229165,0.639638808,-15.55,-13.15,96,0
FRSM,12/6/11,-11.48968751,1.254241206,-13.8,-8.99,96,0
FRSM,12/7/11,-11.97833336,1.062799378,-13.54,-10.05,96,0
FRSM,12/8/11,-13.08104166,0.766819086,-14.73,-11.97,96,0
FRSM,12/9/11,-12.39135419,0.802209569,-13.82,-10.99,96,0
FRSM,12/10/11,-9.954166681,1.371249638,-12.23,-7.54,96,0
FRSM,12/11/11,-13.70802083,0.681766484,-14.99,-12.04,96,0
FRSM,12/12/11,-14.59895831,0.573288705,-15.56,-13.57,96,0
FRSM,12/13/11,-14.591875,0.733815179,-16.46,-13.02,96,0
FRSM,12/14/11,-15.87043474,0.50727576,-16.34,-13.3,46,0
FRSM,1/27/12,-16.23959997,0.412458901,-17.27,-15.57,50,0
FRSM,1/28/12,-15.65520832,0.590104312,-16.73,-14.74,96,0
FRSM,1/29/12,-15.0311458,0.937186014,-16.5,-12.79,96,0
FRSM,1/30/12,-13.90979171,1.267077902,-16.17,-11.84,96,0
FRSM,1/31/12,-15.72229163,0.414737622,-16.31,-14.31,96,0
FRSM,2/1/12,-14.43447919,0.924801989,-15.93,-12.74,96,0
FRSM,2/2/12,-15.68072921,0.617274538,-16.7,-13.47,96,0
FRSM,2/3/12,-15.818125,1.387916546,-18.04,-13.95,96,0
FRSM,2/4/12,-15.39104165,1.145545574,-17.63,-13.5,96,0
FRSM,2/5/12,-16.77875002,0.575293494,-17.99,-15.25,96,0
FRSM,2/6/12,-16.62218745,0.724752121,-17.81,-15.37,96,0
FRSM,2/7/12,-13.80260422,1.63633242,-16.61,-10.5,96,0
FRSM,2/8/12,-11.9558333,1.28996669,-14.24,-9.15,96,0
FRSM,2/9/12,-12.63083332,0.693739938,-14.42,-11.01,96,0
FRSM,2/10/12,-13.86520836,0.863972421,-15.53,-11.89,96,0
FRSM,2/11/12,-14.53875002,1.006024259,-16.57,-12.69,96,0
FRSM,2/12/12,-16.66041663,0.460322296,-17.8,-15.51,96,0
FRSM,2/13/12,-16.38750002,0.964490599,-17.72,-14.29,96,0
FRSM,2/14/12,-16.88864585,1.119381083,-19.47,-14.69,96,0
FRSM,2/15/12,-18.43000005,1.001544061,-20.46,-16.07,96,0
FRSM,2/16/12,-19.29541669,0.796690425,-20.52,-17.24,96,0
FRSM,2/17/12,-21.38093748,1.086786649,-22.92,-19.16,96,0
FRSM,2/18/12,-19.44510416,3.248476615,-23.85,-13.96,96,0
FRSM,2/19/12,-11.08302083,1.348322253,-13.77,-8.09,96,0
FRSM,2/20/12,-6.935520833,2.093862157,-10.5,-3.87,96,0
FRSM,2/21/12,-9.985729168,3.568352636,-14.86,-4.62,96,0
FRSM,2/22/12,-17.20604167,0.952131618,-19.05,-15.01,96,0
FRSM,2/23/12,-17.54833338,2.003525126,-22.35,-14.48,96,0
FRSM,2/24/12,-16.93104171,1.202451425,-18.88,-14.68,96,0
FRSM,2/25/12,-18.48031252,1.096819779,-20.26,-15.79,96,0
FRSM,2/26/12,-18.67749997,0.784964007,-19.98,-17.14,96,0
FRSM,2/27/12,-20.03666671,1.550302314,-23.39,-17.4,96,0
FRSM,2/28/12,-19.7545832,0.755537963,-21.64,-18.03,96,0
FRSM,2/29/12,-23.65354178,1.11563904,-26.98,-21.37,96,0
FRSM,3/1/12,-22.64718751,2.274923634,-28.19,-18.42,96,0
FRSM,3/2/12,-25.53229165,1.15820593,-27.91,-23.1,96,0
FRSM,3/3/12,-25.76052086,1.138944506,-29.2,-23.09,96,0
FRSM,3/4/12,-26.39875005,2.008277198,-29.62,-22.94,96,0
FRSM,3/5/12,-25.9129167,0.486514808,-26.75,-24.71,96,0
FRSM,3/6/12,-23.6859375,1.465593913,-25.73,-20.78,96,0
FRSM,3/7/12,-22.52020834,1.582247547,-25.44,-19.07,96,0
FRSM,3/8/12,-23.88020833,1.664433494,-26.8,-20.98,96,0
FRSM,3/9/12,-23.1690625,1.122860189,-25.22,-21.05,96,0
FRSM,3/10/12,-19.94239572,2.35193518,-24.05,-15.7,96,0
FRSM,3/11/12,-18.41947919,0.900996372,-20.2,-16.97,96,0
FRSM,3/12/12,-16.05760422,1.017072956,-18.14,-13.88,96,0
FRSM,3/13/12,-17.46322922,0.543389953,-18.57,-16.23,96,0
FRSM,3/14/12,-18.12958328,0.422035087,-19.03,-16.9,96,0
FRSM,3/15/12,-17.53739584,1.391732218,-19.28,-14.59,96,0
FRSM,3/16/12,-20.32968752,1.559491489,-24.01,-17.46,96,0
FRSM,3/17/12,-27.31145829,1.329036944,-29.66,-24.3,96,0
FRSM,3/18/12,-25.8253125,1.559948615,-28.71,-22.69,96,0
FRSM,3/19/12,-26.56718749,1.189757037,-28.74,-23.47,96,0
FRSM,3/20/12,-28.66729164,1.409017994,-31.42,-25.06,96,0
FRSM,3/21/12,-28.28958331,0.989925014,-29.45,-26.01,96,0
FRSM,3/22/12,-26.87291668,1.015879118,-28.63,-25.16,96,0
FRSM,3/23/12,-24.72031248,2.03907582,-28.16,-21.3,96,0
FRSM,3/24/12,-21.59458323,0.773933038,-23.8,-20.03,96,0